Zurück zum Katalog

STARLINK-35810

AktivKommunikationVLEO
NORAD 66575·PAYLOAD·🇺🇸 United States

Gestartet Nov 21, 2025 von Cape Canaveral Space Force Station

Loading…

Nächste Überflüge (nächste 24 Stunden)

TLE

AktuellSource: CelesTrak SupGP

Epoche: Sep 14, 2026, 14:26 UTC

1 66575C 25268U   26257.60187500 -.00041439  00000+0 -15013-2 0  2572
2 66575  43.0022   0.3444 0001573 273.0058 302.9908 15.27591650    11

Verfolge STARLINK-35810 in Echtzeit mit AllMySat

Download on the App Store